Retour au catalogue

STARLINK-32462

ActifCommunicationsVLEO
NORAD 62129·PAYLOAD·🇺🇸 United States

Lancé Nov 27, 2024 depuis Cape Canaveral Space Force Station

Loading…

Prochains Passages (prochaines 24 heures)

TLE

FraisSource: CelesTrak SupGP

Époque: Sep 15, 2026, 02:01 UTC

1 62129C 24222R   26258.08451389  .00022642  00000+0  82025-3 0  2586
2 62129  43.0008 143.2603 0001316 278.4975  54.4219 15.27560812    12

Suivez STARLINK-32462 en temps réel avec AllMySat

Download on the App Store